| time (UTC) | temp F | wind direction | speed MPH | gust MPH | rain 1hr in | rain 24hr in | rain mn in | humidity % | barometer mb |
| 20260507005604 | 57 | 28 | 0.0 | 0.0 | 0.00 | 0.00 | 0.00 | 83 | 1018.5 |
| 20260507004604 | 57 | 27 | 0.0 | 0.0 | 0.00 | 0.00 | 0.00 | 83 | 1018.6 |
| 20260507004104 | 57 | 27 | 0.0 | 0.0 | 0.00 | 0.00 | 0.00 | 83 | 1018.7 |
| 20260507003604 | 57 | 27 | 0.0 | 0.0 | 0.00 | 0.00 | 0.00 | 82 | 1018.7 |
| 20260507002604 | 57 | 27 | 0.0 | 0.0 | 0.00 | 0.00 | 0.00 | 83 | 1018.6 |
| 20260507002104 | 57 | 27 | 0.0 | 0.0 | 0.00 | 0.00 | 0.00 | 82 | 1018.7 |
| 20260507001604 | 57 | 27 | 0.0 | 0.0 | 0.00 | 0.00 | 0.00 | 82 | 1018.7 |
| 20260507001104 | 57 | 27 | 0.0 | 0.0 | 0.00 | 0.00 | 0.00 | 82 | 1018.8 |
| 20260507000604 | 57 | 27 | 0.0 | 0.0 | 0.00 | 0.00 | 0.00 | 82 | 1018.7 |
| 20260507000104 | 57 | 27 | 0.0 | 0.0 | 0.00 | 0.00 | 0.00 | 83 | 1018.7 |
| 20260506235605 | 57 | 27 | 0.0 | 0.0 | 0.00 | 0.00 | 0.00 | 83 | 1018.6 |
| 20260506235104 | 57 | 27 | 0.0 | 0.0 | 0.00 | 0.00 | 0.00 | 83 | 1018.7 |
| 20260506234604 | 57 | 27 | 0.0 | 0.0 | 0.00 | 0.00 | 0.00 | 83 | 1018.6 |
| 20260506234104 | 57 | 27 | 0.0 | 0.0 | 0.00 | 0.00 | 0.00 | 82 | 1018.7 |
| 20260506233604 | 57 | 28 | 0.0 | 0.0 | 0.00 | 0.00 | 0.00 | 82 | 1018.6 |
| 20260506233104 | 57 | 27 | 0.0 | 0.0 | 0.00 | 0.00 | 0.00 | 83 | 1018.6 |
| 20260506232604 | 57 | 27 | 0.0 | 0.0 | 0.00 | 0.00 | 0.00 | 81 | 1018.8 |
| 20260506232104 | 58 | 27 | 0.0 | 0.0 | 0.00 | 0.00 | 0.00 | 82 | 1018.7 |
| 20260506231605 | 58 | 27 | 0.0 | 0.0 | 0.00 | 0.00 | 0.00 | 81 | 1018.7 |
| 20260506231104 | 58 | 27 | 0.0 | 0.0 | 0.00 | 0.00 | 0.00 | 81 | 1018.8 |
| 20260506230604 | 58 | 27 | 0.0 | 0.0 | 0.00 | 0.00 | 0.00 | 83 | 1018.7 |
| 20260506230104 | 58 | 27 | 0.0 | 0.0 | 0.00 | 0.00 | 0.00 | 83 | 1018.7 |
| 20260506225604 | 58 | 27 | 0.0 | 0.0 | 0.00 | 0.00 | 0.00 | 81 | 1018.8 |
| 20260506225104 | 58 | 344 | 0.0 | 0.0 | 0.00 | 0.00 | 0.00 | 82 | 1018.8 |
| 20260506224604 | 58 | 300 | 0.0 | 0.0 | 0.00 | 0.00 | 0.00 | 81 | 1018.9 |
| 20260506224105 | 58 | 300 | 0.0 | 0.0 | 0.00 | 0.00 | 0.00 | 83 | 1018.8 |
| 20260506223604 | 58 | 300 | 0.0 | 2.0 | 0.00 | 0.00 | 0.00 | 81 | 1018.8 |
| 20260506222604 | 58 | 300 | 0.0 | 0.0 | 0.00 | 0.00 | 0.00 | 82 | 1019.0 |
| 20260506222104 | 58 | 300 | 0.0 | 0.0 | 0.00 | 0.00 | 0.00 | 82 | 1018.9 |
| 20260506221604 | 58 | 302 | 2.0 | 6.0 | 0.00 | 0.00 | 0.00 | 81 | 1018.8 |
| 20260506221104 | 59 | 280 | 0.0 | 0.0 | 0.00 | 0.00 | 0.00 | 80 | 1018.7 |
| 20260506220604 | 59 | 280 | 0.0 | 0.0 | 0.00 | 0.00 | 0.00 | 81 | 1018.8 |
| 20260506220104 | 59 | 280 | 0.0 | 0.0 | 0.00 | 0.00 | 0.00 | 81 | 1018.7 |
| 20260506215604 | 59 | 280 | 0.0 | 5.0 | 0.00 | 0.00 | 0.00 | 80 | 1018.7 |
| 20260506215104 | 60 | 339 | 0.0 | 0.0 | 0.00 | 0.00 | 0.00 | 81 | 1018.7 |
| 20260506214605 | 59 | 339 | 0.0 | 0.0 | 0.00 | 0.00 | 0.00 | 79 | 1018.6 |
| 20260506214104 | 60 | 5 | 0.0 | 5.0 | 0.00 | 0.00 | 0.00 | 79 | 1018.6 |
| 20260506213604 | 60 | 122 | 0.0 | 6.0 | 0.00 | 0.00 | 0.00 | 80 | 1018.6 |
| 20260506212604 | 59 | 73 | 0.0 | 2.0 | 0.00 | 0.00 | 0.00 | 79 | 1018.7 |
| 20260506212104 | 60 | 294 | 0.0 | 0.0 | 0.00 | 0.00 | 0.00 | 79 | 1018.7 |
| 20260506211604 | 60 | 288 | 0.0 | 0.0 | 0.00 | 0.00 | 0.00 | 81 | 1018.8 |
| 20260506211105 | 60 | 288 | 0.0 | 0.0 | 0.00 | 0.00 | 0.00 | 81 | 1018.8 |
| 20260506210605 | 59 | 291 | 1.0 | 5.0 | 0.00 | 0.00 | 0.00 | 79 | 1018.8 |
| 20260506210105 | 60 | 328 | 0.0 | 2.0 | 0.00 | 0.00 | 0.00 | 80 | 1018.7 |
| 20260506205603 | 61 | 328 | 0.0 | 0.0 | 0.00 | 0.00 | 0.00 | 81 | 1018.7 |
| 20260506205104 | 61 | 344 | 0.0 | 2.0 | 0.00 | 0.00 | 0.00 | 81 | 1018.8 |
| 20260506204604 | 60 | 32 | 0.0 | 8.0 | 0.00 | 0.00 | 0.00 | 80 | 1018.7 |
| 20260506204105 | 60 | 284 | 0.0 | 0.0 | 0.00 | 0.00 | 0.00 | 79 | 1018.7 |
| 20260506203604 | 59 | 284 | 0.0 | 1.0 | 0.00 | 0.00 | 0.00 | 80 | 1018.6 |
| 20260506203105 | 60 | 284 | 0.0 | 0.0 | 0.00 | 0.00 | 0.00 | 82 | 1018.8 |
| 20260506202605 | 60 | 284 | 1.0 | 5.0 | 0.00 | 0.00 | 0.00 | 78 | 1018.6 |
| 20260506201604 | 59 | 325 | 2.0 | 6.0 | 0.00 | 0.00 | 0.00 | 78 | 1018.7 |
| 20260506201103 | 60 | 339 | 2.0 | 5.0 | 0.00 | 0.00 | 0.00 | 78 | 1018.7 |
| 20260506200104 | 60 | 317 | 1.0 | 6.0 | 0.00 | 0.00 | 0.00 | 81 | 1018.5 |
| 20260506195104 | 59 | 50 | 0.0 | 0.0 | 0.00 | 0.00 | 0.00 | 81 | 1018.6 |
| 20260506194604 | 58 | 84 | 0.0 | 1.0 | 0.00 | 0.00 | 0.00 | 81 | 1018.7 |
| 20260506194104 | 58 | 85 | 0.0 | 0.0 | 0.00 | 0.00 | 0.00 | 79 | 1018.6 |
| 20260506193104 | 58 | 57 | 0.0 | 1.0 | 0.00 | 0.00 | 0.00 | 80 | 1018.6 |
| 20260506192604 | 59 | 55 | 0.0 | 0.0 | 0.00 | 0.00 | 0.00 | 81 | 1018.6 |
| 20260506192104 | 58 | 55 | 0.0 | 1.0 | 0.00 | 0.00 | 0.00 | 81 | 1018.5 |
| 20260506191604 | 58 | 54 | 0.0 | 6.0 | 0.00 | 0.00 | 0.00 | 81 | 1018.5 |
| 20260506191104 | 58 | 339 | 0.0 | 5.0 | 0.00 | 0.00 | 0.00 | 83 | 1018.5 |
| 20260506190604 | 58 | 110 | 0.0 | 0.0 | 0.00 | 0.00 | 0.00 | 82 | 1018.5 |
| 20260506190104 | 57 | 132 | 0.0 | 0.0 | 0.00 | 0.00 | 0.00 | 83 | 1018.6 |
| 20260506185604 | 57 | 284 | 2.0 | 6.0 | 0.00 | 0.00 | 0.00 | 82 | 1018.5 |
| 20260506185103 | 58 | 272 | 0.0 | 0.0 | 0.00 | 0.00 | 0.00 | 83 | 1018.4 |
| 20260506184604 | 57 | 272 | 0.0 | 0.0 | 0.00 | 0.00 | 0.00 | 85 | 1018.4 |
| 20260506183604 | 57 | 265 | 0.0 | 0.0 | 0.00 | 0.00 | 0.00 | 84 | 1018.3 |
| 20260506183105 | 57 | 265 | 0.0 | 0.0 | 0.00 | 0.00 | 0.00 | 84 | 1018.2 |
| 20260506182604 | 57 | 265 | 0.0 | 0.0 | 0.00 | 0.00 | 0.00 | 85 | 1018.3 |
| 20260506182105 | 56 | 265 | 0.0 | 2.0 | 0.00 | 0.00 | 0.00 | 86 | 1018.1 |
| 20260506181105 | 56 | 265 | 0.0 | 0.0 | 0.00 | 0.00 | 0.00 | 85 | 1018.1 |
| 20260506180604 | 56 | 266 | 1.0 | 6.0 | 0.00 | 0.00 | 0.00 | 86 | 1018.1 |
| 20260506175105 | 56 | 308 | 0.0 | 0.0 | 0.00 | 0.00 | 0.00 | 87 | 1018.0 |
| 20260506173604 | 56 | 289 | 0.0 | 0.0 | 0.00 | 0.00 | 0.00 | 87 | 1017.9 |
| 20260506173105 | 56 | 289 | 0.0 | 0.0 | 0.00 | 0.00 | 0.00 | 87 | 1018.0 |
| 20260506172604 | 56 | 289 | 0.0 | 0.0 | 0.00 | 0.00 | 0.00 | 86 | 1017.9 |
| 20260506172104 | 56 | 310 | 0.0 | 0.0 | 0.00 | 0.00 | 0.00 | 87 | 1017.9 |
| 20260506171604 | 56 | 310 | 0.0 | 0.0 | 0.00 | 0.00 | 0.00 | 87 | 1017.9 |
| 20260506171106 | 56 | 310 | 0.0 | 0.0 | 0.00 | 0.00 | 0.00 | 86 | 1017.9 |
| 20260506170604 | 57 | 310 | 0.0 | 0.0 | 0.00 | 0.00 | 0.00 | 86 | 1017.9 |
| 20260506170104 | 57 | 310 | 0.0 | 1.0 | 0.00 | 0.00 | 0.00 | 86 | 1017.9 |
| 20260506165604 | 57 | 310 | 0.0 | 0.0 | 0.00 | 0.00 | 0.00 | 86 | 1017.9 |
| 20260506165105 | 56 | 310 | 0.0 | 0.0 | 0.00 | 0.00 | 0.00 | 86 | 1017.7 |
| 20260506164604 | 56 | 310 | 0.0 | 0.0 | 0.00 | 0.00 | 0.00 | 87 | 1017.9 |
| 20260506164104 | 56 | 310 | 0.0 | 0.0 | 0.00 | 0.00 | 0.00 | 87 | 1017.8 |
| 20260506162604 | 55 | 310 | 0.0 | 0.0 | 0.00 | 0.00 | 0.00 | 89 | 1017.8 |
| 20260506162104 | 55 | 310 | 0.0 | 0.0 | 0.00 | 0.00 | 0.00 | 88 | 1017.7 |
| 20260506161604 | 56 | 310 | 0.0 | 0.0 | 0.00 | 0.00 | 0.00 | 86 | 1017.7 |
| 20260506161104 | 57 | 310 | 0.0 | 0.0 | 0.00 | 0.00 | 0.00 | 87 | 1017.5 |
| 20260506160604 | 57 | 310 | 0.0 | 0.0 | 0.00 | 0.00 | 0.00 | 88 | 1017.5 |
| 20260506155604 | 57 | 310 | 0.0 | 0.0 | 0.00 | 0.00 | 0.00 | 90 | 1017.3 |
| 20260506155104 | 57 | 310 | 0.0 | 0.0 | 0.00 | 0.00 | 0.00 | 90 | 1017.3 |
| 20260506154604 | 57 | 310 | 0.0 | 0.0 | 0.00 | 0.00 | 0.00 | 91 | 1017.3 |
| 20260506154104 | 57 | 310 | 0.0 | 0.0 | 0.00 | 0.00 | 0.00 | 92 | 1017.2 |
| 20260506153604 | 56 | 310 | 0.0 | 0.0 | 0.00 | 0.00 | 0.00 | 92 | 1017.2 |
| 20260506153104 | 56 | 310 | 0.0 | 0.0 | 0.00 | 0.00 | 0.00 | 92 | 1017.1 |
| 20260506152104 | 55 | 310 | 0.0 | 0.0 | 0.00 | 0.00 | 0.00 | 94 | 1017.2 |
| 20260506151604 | 55 | 319 | 1.0 | 6.0 | 0.00 | 0.00 | 0.00 | 94 | 1017.1 |
| 20260506151104 | 55 | 348 | 0.0 | 0.0 | 0.00 | 0.00 | 0.00 | 95 | 1017.1 |
| 20260506150604 | 55 | 348 | 0.0 | 0.0 | 0.00 | 0.00 | 0.00 | 95 | 1017.1 |
| 20260506150104 | 55 | 342 | 0.0 | 0.0 | 0.00 | 0.00 | 0.00 | 95 | 1017.2 |
| 20260506145604 | 55 | 343 | 0.0 | 0.0 | 0.00 | 0.00 | 0.00 | 95 | 1017.1 |
| 20260506144604 | 54 | 342 | 0.0 | 0.0 | 0.00 | 0.00 | 0.00 | 96 | 1017.2 |
| 20260506142603 | 53 | 67 | 0.0 | 0.0 | 0.00 | 0.00 | 0.00 | 96 | 1017.0 |
| 20260506141603 | 52 | 67 | 0.0 | 0.0 | 0.00 | 0.00 | 0.00 | 96 | 1017.1 |
| 20260506141104 | 52 | 67 | 0.0 | 0.0 | 0.00 | 0.00 | 0.00 | 95 | 1017.1 |
| 20260506140604 | 51 | 67 | 0.0 | 0.0 | 0.00 | 0.00 | 0.00 | 95 | 1017.1 |
| 20260506140104 | 51 | 67 | 0.0 | 0.0 | 0.00 | 0.00 | 0.00 | 95 | 1017.0 |
| 20260506135604 | 51 | 67 | 0.0 | 0.0 | 0.00 | 0.00 | 0.00 | 95 | 1016.8 |
| 20260506135104 | 51 | 67 | 0.0 | 0.0 | 0.00 | 0.00 | 0.00 | 95 | 1016.7 |
| 20260506134604 | 51 | 67 | 0.0 | 0.0 | 0.00 | 0.00 | 0.00 | 95 | 1016.7 |
| 20260506134104 | 51 | 67 | 0.0 | 0.0 | 0.00 | 0.00 | 0.00 | 95 | 1016.7 |
| 20260506133604 | 50 | 67 | 0.0 | 0.0 | 0.00 | 0.00 | 0.00 | 95 | 1016.8 |
| 20260506133104 | 50 | 67 | 0.0 | 0.0 | 0.00 | 0.00 | 0.00 | 95 | 1016.6 |
| 20260506132604 | 50 | 67 | 0.0 | 0.0 | 0.00 | 0.00 | 0.00 | 95 | 1016.6 |
| 20260506131604 | 50 | 67 | 0.0 | 0.0 | 0.00 | 0.00 | 0.00 | 95 | 1016.6 |
| 20260506131104 | 50 | 67 | 0.0 | 0.0 | 0.00 | 0.00 | 0.00 | 95 | 1016.5 |
| 20260506130604 | 50 | 67 | 0.0 | 0.0 | 0.00 | 0.00 | 0.00 | 95 | 1016.4 |
| 20260506130104 | 50 | 67 | 0.0 | 0.0 | 0.00 | 0.00 | 0.00 | 95 | 1016.4 |
| 20260506125603 | 50 | 67 | 0.0 | 0.0 | 0.00 | 0.00 | 0.00 | 95 | 1016.4 |
| 20260506125104 | 50 | 67 | 0.0 | 0.0 | 0.00 | 0.00 | 0.00 | 95 | 1016.3 |
| 20260506124604 | 50 | 67 | 0.0 | 0.0 | 0.00 | 0.00 | 0.00 | 95 | 1016.3 |
| 20260506124105 | 50 | 67 | 0.0 | 0.0 | 0.00 | 0.00 | 0.00 | 95 | 1016.3 |
| 20260506123604 | 50 | 67 | 0.0 | 0.0 | 0.00 | 0.00 | 0.00 | 95 | 1016.2 |
| 20260506123104 | 50 | 67 | 0.0 | 0.0 | 0.00 | 0.00 | 0.00 | 95 | 1016.2 |
| 20260506122604 | 50 | 67 | 0.0 | 0.0 | 0.00 | 0.00 | 0.00 | 95 | 1016.3 |
| 20260506122104 | 50 | 67 | 0.0 | 0.0 | 0.00 | 0.00 | 0.00 | 94 | 1016.2 |
| 20260506121604 | 50 | 67 | 0.0 | 0.0 | 0.00 | 0.00 | 0.00 | 94 | 1016.3 |
| 20260506120104 | 50 | 67 | 0.0 | 0.0 | 0.00 | 0.00 | 0.00 | 94 | 1016.1 |
| 20260506115603 | 51 | 67 | 0.0 | 0.0 | 0.00 | 0.00 | 0.00 | 94 | 1015.9 |
| 20260506115104 | 51 | 67 | 0.0 | 0.0 | 0.00 | 0.00 | 0.00 | 94 | 1016.0 |
| 20260506114604 | 51 | 67 | 0.0 | 0.0 | 0.00 | 0.00 | 0.00 | 94 | 1015.9 |
| 20260506113604 | 51 | 67 | 0.0 | 0.0 | 0.00 | 0.00 | 0.00 | 94 | 1015.8 |
| 20260506113104 | 51 | 67 | 0.0 | 0.0 | 0.00 | 0.00 | 0.00 | 94 | 1015.8 |
| 20260506112604 | 51 | 67 | 0.0 | 0.0 | 0.00 | 0.00 | 0.00 | 94 | 1015.8 |
| 20260506112103 | 51 | 67 | 0.0 | 0.0 | 0.00 | 0.00 | 0.00 | 94 | 1016.0 |
| 20260506111603 | 51 | 67 | 0.0 | 0.0 | 0.00 | 0.00 | 0.00 | 94 | 1015.9 |
| 20260506111104 | 51 | 67 | 0.0 | 0.0 | 0.00 | 0.00 | 0.00 | 94 | 1015.9 |
| 20260506110603 | 50 | 67 | 0.0 | 0.0 | 0.00 | 0.00 | 0.00 | 94 | 1015.8 |
| 20260506110103 | 50 | 67 | 0.0 | 0.0 | 0.00 | 0.00 | 0.00 | 94 | 1015.7 |
| 20260506105603 | 50 | 67 | 0.0 | 0.0 | 0.00 | 0.00 | 0.00 | 94 | 1015.7 |
| 20260506105104 | 51 | 67 | 0.0 | 0.0 | 0.00 | 0.00 | 0.00 | 93 | 1015.7 |
| 20260506104604 | 51 | 67 | 0.0 | 0.0 | 0.00 | 0.00 | 0.00 | 94 | 1015.6 |
| 20260506104104 | 51 | 67 | 0.0 | 0.0 | 0.00 | 0.00 | 0.00 | 94 | 1015.5 |
| 20260506103604 | 51 | 67 | 0.0 | 0.0 | 0.00 | 0.00 | 0.00 | 93 | 1015.4 |
| 20260506103104 | 51 | 67 | 0.0 | 0.0 | 0.00 | 0.00 | 0.00 | 93 | 1015.3 |
| 20260506102604 | 51 | 67 | 0.0 | 0.0 | 0.00 | 0.00 | 0.00 | 93 | 1015.4 |
| 20260506102104 | 51 | 67 | 0.0 | 0.0 | 0.00 | 0.00 | 0.00 | 94 | 1015.3 |
| 20260506101603 | 51 | 67 | 0.0 | 0.0 | 0.00 | 0.00 | 0.00 | 93 | 1015.4 |
| 20260506101103 | 51 | 67 | 0.0 | 0.0 | 0.00 | 0.00 | 0.00 | 93 | 1015.2 |
| 20260506100603 | 51 | 67 | 0.0 | 0.0 | 0.00 | 0.00 | 0.00 | 93 | 1015.1 |
| 20260506100103 | 51 | 67 | 0.0 | 0.0 | 0.00 | 0.00 | 0.00 | 93 | 1015.1 |
| 20260506095104 | 51 | 67 | 0.0 | 0.0 | 0.00 | 0.00 | 0.00 | 93 | 1015.1 |
| 20260506094605 | 51 | 67 | 0.0 | 0.0 | 0.00 | 0.00 | 0.00 | 93 | 1015.1 |
| 20260506094104 | 51 | 67 | 0.0 | 0.0 | 0.00 | 0.00 | 0.00 | 93 | 1015.0 |
| 20260506093604 | 51 | 67 | 0.0 | 0.0 | 0.00 | 0.00 | 0.00 | 93 | 1015.0 |
| 20260506093104 | 51 | 67 | 0.0 | 0.0 | 0.00 | 0.00 | 0.00 | 93 | 1015.0 |
| 20260506092605 | 52 | 67 | 0.0 | 0.0 | 0.00 | 0.00 | 0.00 | 93 | 1014.9 |
| 20260506092103 | 52 | 67 | 0.0 | 0.0 | 0.00 | 0.00 | 0.00 | 93 | 1014.9 |
| 20260506091604 | 52 | 67 | 0.0 | 0.0 | 0.00 | 0.00 | 0.00 | 93 | 1014.8 |
| 20260506091104 | 52 | 67 | 0.0 | 0.0 | 0.00 | 0.00 | 0.00 | 92 | 1014.7 |
| 20260506090604 | 52 | 67 | 0.0 | 0.0 | 0.00 | 0.00 | 0.00 | 93 | 1014.7 |
| 20260506090103 | 52 | 67 | 0.0 | 0.0 | 0.00 | 0.00 | 0.00 | 92 | 1014.5 |
| 20260506085604 | 52 | 67 | 0.0 | 0.0 | 0.00 | 0.00 | 0.00 | 92 | 1014.5 |
| 20260506085104 | 52 | 67 | 0.0 | 0.0 | 0.00 | 0.00 | 0.00 | 92 | 1014.5 |
| 20260506084604 | 52 | 67 | 0.0 | 0.0 | 0.00 | 0.00 | 0.00 | 92 | 1014.6 |
| 20260506084104 | 52 | 67 | 0.0 | 0.0 | 0.00 | 0.00 | 0.00 | 92 | 1014.5 |
| 20260506082604 | 52 | 67 | 0.0 | 0.0 | 0.00 | 0.00 | 0.00 | 92 | 1014.5 |
| 20260506082103 | 53 | 67 | 0.0 | 0.0 | 0.00 | 0.00 | 0.00 | 92 | 1014.5 |
| 20260506081604 | 53 | 67 | 0.0 | 0.0 | 0.00 | 0.00 | 0.00 | 92 | 1014.4 |
| 20260506081103 | 53 | 67 | 0.0 | 0.0 | 0.00 | 0.00 | 0.00 | 92 | 1014.3 |
| 20260506080603 | 53 | 67 | 0.0 | 0.0 | 0.00 | 0.00 | 0.00 | 92 | 1014.4 |
| 20260506080103 | 53 | 67 | 0.0 | 0.0 | 0.00 | 0.00 | 0.00 | 92 | 1014.4 |
| 20260506073104 | 53 | 67 | 0.0 | 0.0 | 0.00 | 0.00 | 0.00 | 91 | 1014.1 |
| 20260506072604 | 53 | 67 | 0.0 | 0.0 | 0.00 | 0.00 | 0.00 | 91 | 1014.0 |
| 20260506072104 | 54 | 67 | 0.0 | 0.0 | 0.00 | 0.00 | 0.00 | 91 | 1014.0 |
| 20260506071604 | 54 | 67 | 0.0 | 0.0 | 0.00 | 0.00 | 0.00 | 91 | 1013.9 |
| 20260506070604 | 54 | 67 | 0.0 | 0.0 | 0.00 | 0.00 | 0.00 | 90 | 1013.7 |
| 20260506070104 | 54 | 67 | 0.0 | 0.0 | 0.00 | 0.00 | 0.00 | 90 | 1013.7 |
| 20260506061603 | 55 | 67 | 0.0 | 0.0 | 0.00 | 0.00 | 0.00 | 89 | 1013.4 |
| 20260506061104 | 55 | 67 | 0.0 | 0.0 | 0.00 | 0.00 | 0.00 | 89 | 1013.5 |
| 20260506060603 | 55 | 67 | 0.0 | 0.0 | 0.00 | 0.00 | 0.00 | 89 | 1013.4 |
| 20260506051104 | 57 | 67 | 0.0 | 0.0 | 0.00 | 0.00 | 0.00 | 86 | 1013.2 |
| 20260506050603 | 57 | 67 | 0.0 | 0.0 | 0.00 | 0.00 | 0.00 | 86 | 1013.2 |
| 20260506050104 | 57 | 67 | 0.0 | 0.0 | 0.00 | 0.00 | 0.00 | 86 | 1013.2 |
| 20260506045103 | 57 | 67 | 0.0 | 0.0 | 0.00 | 0.00 | 0.00 | 85 | 1013.2 |
| 20260506044103 | 58 | 67 | 0.0 | 0.0 | 0.00 | 0.00 | 0.00 | 85 | 1013.1 |
| 20260506043605 | 58 | 67 | 0.0 | 0.0 | 0.00 | 0.00 | 0.00 | 84 | 1013.1 |
| 20260506043103 | 58 | 67 | 0.0 | 0.0 | 0.00 | 0.00 | 0.00 | 84 | 1013.0 |
| 20260506042604 | 58 | 67 | 0.0 | 0.0 | 0.00 | 0.00 | 0.00 | 83 | 1012.9 |
| 20260506042104 | 59 | 67 | 0.0 | 0.0 | 0.00 | 0.00 | 0.00 | 83 | 1012.9 |
| 20260506041604 | 59 | 67 | 0.0 | 0.0 | 0.00 | 0.00 | 0.00 | 83 | 1012.8 |
| 20260506035604 | 60 | 67 | 0.0 | 0.0 | 0.00 | 0.00 | 0.00 | 81 | 1012.6 |
| 20260506035105 | 60 | 67 | 0.0 | 0.0 | 0.00 | 0.00 | 0.00 | 80 | 1012.5 |
| 20260506034605 | 60 | 67 | 0.0 | 0.0 | 0.00 | 0.00 | 0.00 | 80 | 1012.5 |
| 20260506034105 | 61 | 67 | 0.0 | 0.0 | 0.00 | 0.00 | 0.00 | 79 | 1012.5 |
| 20260506033605 | 61 | 67 | 0.0 | 0.0 | 0.00 | 0.00 | 0.00 | 79 | 1012.4 |
| 20260506033105 | 61 | 67 | 0.0 | 0.0 | 0.00 | 0.00 | 0.00 | 79 | 1012.4 |
| 20260506032605 | 62 | 67 | 0.0 | 0.0 | 0.00 | 0.00 | 0.00 | 79 | 1012.3 |
| 20260506032106 | 62 | 67 | 0.0 | 0.0 | 0.00 | 0.00 | 0.00 | 78 | 1012.3 |
| 20260506031605 | 62 | 67 | 0.0 | 0.0 | 0.00 | 0.00 | 0.00 | 78 | 1012.4 |
| 20260506031105 | 63 | 67 | 0.0 | 0.0 | 0.00 | 0.00 | 0.00 | 77 | 1012.3 |
| 20260506030605 | 63 | 67 | 0.0 | 0.0 | 0.00 | 0.00 | 0.00 | 77 | 1012.2 |
| 20260506030105 | 63 | 67 | 0.0 | 0.0 | 0.00 | 0.00 | 0.00 | 77 | 1012.1 |
| 20260506025605 | 63 | 67 | 0.0 | 0.0 | 0.00 | 0.00 | 0.00 | 77 | 1012.1 |
| 20260506025105 | 64 | 67 | 0.0 | 0.0 | 0.00 | 0.00 | 0.00 | 76 | 1012.0 |
| 20260506024605 | 64 | 67 | 0.0 | 0.0 | 0.00 | 0.00 | 0.00 | 76 | 1012.0 |
| 20260506024105 | 64 | 67 | 0.0 | 0.0 | 0.00 | 0.00 | 0.00 | 75 | 1012.0 |
| 20260506023605 | 64 | 67 | 0.0 | 0.0 | 0.00 | 0.00 | 0.00 | 75 | 1012.0 |
| 20260506023105 | 65 | 67 | 0.0 | 0.0 | 0.00 | 0.00 | 0.00 | 74 | 1012.0 |
| 20260506022605 | 65 | 67 | 0.0 | 0.0 | 0.00 | 0.00 | 0.00 | 73 | 1011.9 |
| 20260506022105 | 65 | 67 | 0.0 | 0.0 | 0.00 | 0.00 | 0.00 | 72 | 1012.0 |
| 20260506021105 | 66 | 67 | 0.0 | 0.0 | 0.00 | 0.00 | 0.00 | 71 | 1012.0 |
| 20260506020105 | 66 | 67 | 0.0 | 0.0 | 0.00 | 0.00 | 0.00 | 69 | 1011.9 |
| 20260506015605 | 67 | 67 | 0.0 | 0.0 | 0.00 | 0.00 | 0.00 | 70 | 1012.0 |
| 20260506015105 | 67 | 67 | 0.0 | 0.0 | 0.00 | 0.00 | 0.00 | 69 | 1012.0 |
| 20260506014604 | 67 | 67 | 0.0 | 0.0 | 0.00 | 0.00 | 0.00 | 69 | 1012.0 |
| 20260506014105 | 67 | 67 | 0.0 | 0.0 | 0.00 | 0.00 | 0.00 | 69 | 1011.9 |
| 20260506013105 | 67 | 67 | 0.0 | 0.0 | 0.00 | 0.00 | 0.00 | 69 | 1012.0 |
| 20260506012605 | 67 | 67 | 0.0 | 0.0 | 0.00 | 0.00 | 0.00 | 68 | 1012.1 |
| 20260506012105 | 67 | 67 | 0.0 | 0.0 | 0.00 | 0.00 | 0.00 | 69 | 1012.0 |
| 20260506011605 | 68 | 67 | 0.0 | 0.0 | 0.00 | 0.00 | 0.00 | 70 | 1012.1 |
| 20260506010605 | 68 | 67 | 0.0 | 0.0 | 0.00 | 0.00 | 0.00 | 68 | 1012.1 |